Baltimore International Airport Airport (BWI)

 

Airport Diagram
Current Weather/Forecast (VFR Conditions)
METAR KBWI 281654Z 26013G18KT 10SM SCT044 SCT065 SCT110 SCT250 07/M07 A2989 RMK AO2 SLP122 VIRGA NW-NE T00671067
TAF KBWI 281500Z 2815/2918 23008G16KT P6SM BKN060 BKN130 FM281600 24012G22KT P6SM BKN050 BKN130 TEMPO 2817/2821 5SM -SHSNRA FM282300 28007KT P6SM SCT060 BKN140 FM291400 28011G18KT P6SM BKN090

All Charts
General
Chart Name Download
AIRPORT DIAGRAM
TAKEOFF MINIMUMS
ALTERNATE MINIMUMS

Departures
Chart Name Download
CONLE THREE (RNAV)
CONLE THREE (RNAV), CONT.1
FIXET TWO (RNAV)
FIXET TWO (RNAV), CONT.1
PALEO THREE
SWANN THREE
TERPZ SIX (RNAV)
TERPZ SIX (RNAV), CONT.1

Arrivals
Chart Name Download
ANTHM THREE (RNAV)
ANTHM THREE (RNAV), CONT.1
ANTHM THREE (RNAV), CONT.2
MIIDY TWO (RNAV)
RAVNN SIX (RNAV)
RAVNN SIX (RNAV), CONT.1
RIPKN TWO
RIPKN TWO, CONT.1
TRISH THREE (RNAV)
TRISH THREE (RNAV), CONT.1
WESTMINSTER SEVEN

Approaches
Chart Name Download
ILS OR LOC RWY 10
ILS OR LOC RWY 15L
ILS OR LOC RWY 28
ILS OR LOC RWY 33L
ILS OR LOC RWY 33R
ILS OR LOC RWY 15R
ILS RWY 10 (SA CAT I)
ILS RWY 33L (SA CAT I - II)
ILS RWY 10 (CAT II - III)
RNAV (RNP) Z RWY 10
RNAV (RNP) Z RWY 15R
RNAV (RNP) Z RWY 28
RNAV (RNP) Z RWY 33L
RNAV (GPS) RWY 15L
RNAV (GPS) RWY 33R
RNAV (GPS) Y RWY 10
RNAV (GPS) Y RWY 15R
RNAV (GPS) Y RWY 28
RNAV (GPS) Y RWY 33L
INTERSTATE VISUAL RWY 33L


Inbound Traffic (Arrivals)

No inbound traffic.


Outbound Traffic (Departures)

No outbound traffic.